Bloomington, IN

2:53 AM EST on December 16, 2019 (GMT -0500)
Monroe County

Weather History for KBMG - September, 2019

Change the Weather History Date:

Sunday, September 29, 2019

  Actual Average Record
Temperature  
Mean Temperature 78 °F 60 °F  
Max Temperature 90 °F 73 °F 82 °F (1998)
Min Temperature 67 °F 47 °F 39 °F (2000)
Degree Days  
Heating Degree Days 0 6  
Month to date heating degree days 2 71  
Since 1 July heating degree days 2 78  
Cooling Degree Days 14 1  
Month to date cooling degree days 216 95  
Year to date cooling degree days 1188 912  
Growing Degree Days 28 (Base 50)    
Moisture  
Dew Point 66 °F    
Average Humidity 71    
Maximum Humidity 90    
Minimum Humidity 46    
Precipitation  
Precipitation 0.01 in 0.13 in 0.60 in (1999)
Month to date precipitation 1.21 3.21  
Year to date precipitation 37.43 36.40  
Sea Level Pressure  
Sea Level Pressure 30.12 in    
Wind  
Wind Speed 4 mph ()    
Max Wind Speed 15 mph    
Max Gust Speed 24 mph    
Visibility 9.8 miles    
Events Rain    
T = Trace of Precipitation, MM = Missing Value Source: Averaged Metar Reports

Daily Weather History Graph

Daily Weather History Graph

Search for Another Location

Airport or City:

Astronomy

Sep. 29, 2019 Rise Set
Actual Time 7:40 AM EDT 7:32 PM EDT
Civil Twilight 7:13 AM EDT 7:59 PM EDT
Nautical Twilight 6:42 AM EDT 8:30 PM EDT
Astronomical Twilight 6:11 AM EDT 9:01 PM EDT
Moon 8:30 AM EDT (9/29) 8:33 PM EDT (9/29)
Length of Visible Light 12h 45m
Length of Day
11h 52m
New Moon, 1% of the Moon is Illuminated
Sep 29
New Moon
Oct 5
First Quarter
Oct 13
Full
Oct 21
Last Quarter
Oct 27
New

Hourly Weather History & Observations

Time (EDT) Temp. Heat Index Dew Point Humidity Pressure Visibility Wind Dir Wind Speed Gust Speed Precip Events Conditions
12:53 AM 73.0 °F - 63.0 °F 71% 30.13 in 10.0 mi SE 4.6 mph - N/A   Scattered Clouds
1:53 AM 71.1 °F - 63.0 °F 75% 30.13 in 10.0 mi Calm Calm - N/A   Clear
2:53 AM 70.0 °F - 63.0 °F 78% 30.12 in 10.0 mi SE 4.6 mph - N/A   Clear
3:53 AM 71.1 °F - 63.0 °F 75% 30.12 in 10.0 mi ESE 6.9 mph - N/A   Clear
4:53 AM 70.0 °F - 63.0 °F 78% 30.12 in 10.0 mi ESE 4.6 mph - N/A   Clear
5:53 AM 70.0 °F - 63.0 °F 78% 30.12 in 10.0 mi ESE 5.8 mph - N/A   Scattered Clouds
6:53 AM 70.0 °F - 63.0 °F 78% 30.14 in 10.0 mi ESE 4.6 mph - N/A   Scattered Clouds
7:53 AM 70.0 °F - 63.0 °F 78% 30.15 in 10.0 mi ESE 6.9 mph - N/A   Clear
8:53 AM 71.1 °F - 64.0 °F 78% 30.16 in 10.0 mi SE 5.8 mph - N/A   Partly Cloudy
9:53 AM 73.0 °F - 64.0 °F 73% 30.17 in 10.0 mi SSE 6.9 mph - N/A   Mostly Cloudy
10:53 AM 78.1 °F - 66.0 °F 66% 30.16 in 10.0 mi SSE 8.1 mph - N/A   Mostly Cloudy
11:53 AM 82.0 °F 84.5 °F 66.9 °F 60% 30.15 in 10.0 mi South 9.2 mph - N/A   Mostly Cloudy
12:53 PM 87.1 °F 89.9 °F 66.9 °F 51% 30.14 in 10.0 mi SSW 11.5 mph 18.4 mph N/A   Mostly Cloudy
1:53 PM 88.0 °F 89.6 °F 64.9 °F 46% 30.13 in 10.0 mi SW 11.5 mph 20.7 mph N/A   Scattered Clouds
2:53 PM 82.0 °F 84.9 °F 68.0 °F 62% 30.12 in 7.0 mi SW 6.9 mph 21.9 mph 0.01 in Rain Light Rain
3:53 PM 86.0 °F 89.4 °F 68.0 °F 55% 30.10 in 10.0 mi West 6.9 mph - 0.00 in   Scattered Clouds
4:53 PM 88.0 °F 90.3 °F 66.0 °F 48% 30.08 in 10.0 mi SW 4.6 mph - N/A   Mostly Cloudy
5:53 PM 86.0 °F 89.4 °F 68.0 °F 55% 30.09 in 10.0 mi Calm Calm - N/A   Scattered Clouds
6:53 PM 84.9 °F 89.4 °F 70.0 °F 61% 30.09 in 10.0 mi Calm Calm - N/A   Overcast
7:53 PM 77.0 °F - 70.0 °F 79% 30.10 in 10.0 mi Calm Calm - N/A   Scattered Clouds
8:53 PM 73.9 °F - 68.0 °F 82% 30.11 in 10.0 mi Calm Calm - N/A   Clear
9:53 PM 71.1 °F - 66.9 °F 87% 30.12 in 10.0 mi Calm Calm - N/A   Clear
10:53 PM 70.0 °F - 66.9 °F 90% 30.11 in 10.0 mi Calm Calm - N/A   Clear
11:53 PM 69.1 °F - 66.0 °F 90% 30.11 in 8.0 mi Calm Calm - N/A   Clear